CW7858 Murcia ES current weather conditions

sailwx.info

Wind from 241 at 0 knots gusting 2

Air temperature 9.4° C
Dewpoint 8.4° C

Last reported at 2020-Jan-21 22:52 UTC.
Time now 2020-Jan-21 23:32 UTC

Location: N 37°60' W 001°08'.
View on Google Maps.

See reports from other nearby stations

  
Tides and Currents Weather Stations Pressure Air Temp Water Temp Dewpoint Dewpoint Depression Visibility Wind Speed Wind Dir Waves Ship Positions
date/time (UTC)wind fromknots sea level pressurealtimeterstation pressurevisibilityair tempwater tempwave heightnotes
2020-Jan-21 22:52 241 0 gusting 2 9.4
2020-Jan-21 22:42 256 0 gusting 4 9.4
2020-Jan-21 22:33 117 0 gusting 5 9.4
2020-Jan-21 22:22 212 0 gusting 4 9.4
2020-Jan-21 22:12 260 3 gusting 5 9.4
2020-Jan-21 22:02 203 0 gusting 2 9.4
2020-Jan-21 21:52 203 0 gusting 1 9.4
2020-Jan-21 21:42 203 9.4
2020-Jan-21 21:32 203 0 gusting 2 9.4
2020-Jan-21 21:22 203 1 gusting 2 9.4
2020-Jan-21 21:12 203 0 gusting 2 9.4
2020-Jan-21 21:02 203 10.0
2020-Jan-21 20:52 203 10.0
2020-Jan-21 20:42 203 10.0
2020-Jan-21 20:32 203 10.0
2020-Jan-21 20:22 203 0 gusting 1 10.0
2020-Jan-21 20:12 203 0 gusting 1 10.0
2020-Jan-21 20:02 203 10.0
2020-Jan-21 19:52 203 10.0
2020-Jan-21 19:42 203 10.6
2020-Jan-21 19:32 203 10.6
2020-Jan-21 19:22 203 10.6
2020-Jan-21 19:12 203 10.6
2020-Jan-21 19:02 203 10.6
2020-Jan-21 18:52 203 10.6
2020-Jan-21 18:42 203 10.6
2020-Jan-21 18:32 239 11.1
2020-Jan-21 18:22 239 11.1
2020-Jan-21 18:12 239 11.1
2020-Jan-21 18:02 239 11.1
2020-Jan-21 17:52 239 11.1
2020-Jan-21 17:42 239 11.1
2020-Jan-21 17:32 239 11.7
2020-Jan-21 17:22 239 11.7
2020-Jan-21 17:12 239 0 gusting 1 11.7
2020-Jan-21 17:02 239 0 gusting 1 11.7
2020-Jan-21 16:52 239 0 gusting 2 11.7
2020-Jan-21 16:42 239 11.7
2020-Jan-21 16:32 239 0 gusting 1 11.7
2020-Jan-21 16:22 239 0 gusting 1 12.2
2020-Jan-21 16:12 239 12.2
2020-Jan-21 16:02 251 1 gusting 3 12.2
2020-Jan-21 15:52 239 0 gusting 2 12.2
2020-Jan-21 15:42 240 0 gusting 4 12.2
2020-Jan-21 15:32 240 1 gusting 2 12.2
2020-Jan-21 15:22 200 1 gusting 2 12.2
2020-Jan-21 15:13 241 12.2
2020-Jan-21 15:02 263 2 gusting 5 12.2
2020-Jan-21 14:52 226 12.2
2020-Jan-21 14:42 272 4 gusting 6 11.7
2020-Jan-21 14:32 229 3 gusting 6 11.7
2020-Jan-21 14:22 179 0 gusting 5 11.7
2020-Jan-21 14:12 236 2 gusting 5 11.7
2020-Jan-21 14:02 234 2 gusting 5 11.7
2020-Jan-21 13:52 215 0 gusting 6 11.1
2020-Jan-21 13:42 229 0 gusting 6 10.6
2020-Jan-21 13:32 232 1 gusting 6 10.6
2020-Jan-21 13:22 217 0 gusting 4 10.6
2020-Jan-21 13:12 227 1 gusting 5 10.0
2020-Jan-21 13:02 189 2 gusting 5 10.0
2020-Jan-21 12:52 240 0 gusting 4 10.0
2020-Jan-21 12:42 246 0 gusting 5 10.6
2020-Jan-21 12:32 220 1 gusting 5 10.0
2020-Jan-21 12:22 254 1 gusting 5 10.0
2020-Jan-21 12:12 185 1 gusting 4 10.0
2020-Jan-21 12:02 226 0 gusting 5 10.0
2020-Jan-21 11:52 246 1 gusting 8 9.4
2020-Jan-21 11:42 184 0 gusting 5 10.0
2020-Jan-21 11:32 205 0 gusting 4 10.0
2020-Jan-21 11:22 216 8.9
2020-Jan-21 11:12 192 8.9
2020-Jan-21 11:02 239 1 gusting 4 8.9
2020-Jan-21 10:52 199 0 gusting 5 8.9
2020-Jan-21 10:42 264 8.9
2020-Jan-21 10:32 268 3 gusting 6 8.3
2020-Jan-21 10:22 241 1 gusting 6 8.9
2020-Jan-21 10:12 237 2 gusting 9 8.3
2020-Jan-21 10:02 261 3 gusting 6 8.3
2020-Jan-21 09:52 232 5 gusting 9 8.9
2020-Jan-21 09:42 261 2 gusting 6 8.9
2020-Jan-21 09:32 213 1 gusting 6 8.9
2020-Jan-21 09:23 232 4 gusting 6 8.9
2020-Jan-21 09:12 251 1 gusting 6 9.4
2020-Jan-21 09:02 254 3 gusting 8 8.9
2020-Jan-21 08:52 280 2 gusting 7 8.9
2020-Jan-21 08:42 186 2 gusting 6 8.9
2020-Jan-21 08:32 205 1 gusting 4 8.9
2020-Jan-21 08:22 296 0 gusting 4 8.9
2020-Jan-21 08:12 254 1 gusting 6 8.9
2020-Jan-21 08:02 184 3 gusting 6 8.9
2020-Jan-21 07:52 250 2 gusting 5 8.9
2020-Jan-21 07:42 260 1 gusting 4 8.9
2020-Jan-21 07:32 260 3 gusting 6 8.9
2020-Jan-21 07:22 141 0 gusting 6 8.9
2020-Jan-21 07:12 196 0 gusting 5 8.9
2020-Jan-21 07:02 222 0 gusting 4 8.9
2020-Jan-21 06:52 213 0 gusting 4 8.9
2020-Jan-21 06:42 246 0 gusting 1 8.9
2020-Jan-21 06:32 248 0 gusting 5 8.9
2020-Jan-21 06:22 239 0 gusting 2 8.9
2020-Jan-21 06:12 226 0 gusting 5 8.9
2020-Jan-21 06:02 217 1 gusting 2 8.9
2020-Jan-21 05:52 313 8.9
2020-Jan-21 05:42 021 0 gusting 4 8.9
2020-Jan-21 05:32 075 0 gusting 6 9.4
2020-Jan-21 05:22 360 2 gusting 7 8.9
2020-Jan-21 05:12 075 2 gusting 5 8.9
2020-Jan-21 05:02 350 0 gusting 5 8.9
2020-Jan-21 04:52 234 1 gusting 5 8.9
2020-Jan-21 04:42 312 2 gusting 6 8.9
2020-Jan-21 04:32 263 1 gusting 5 8.9
2020-Jan-21 04:22 260 1 gusting 4 8.9
2020-Jan-21 04:12 236 1 gusting 6 8.9
2020-Jan-21 04:02 244 1 gusting 5 8.9
2020-Jan-21 03:52 289 2 gusting 6 8.9
2020-Jan-21 03:42 319 2 gusting 6 8.9
2020-Jan-21 03:32 264 3 gusting 6 8.9
2020-Jan-21 03:22 126 1 gusting 4 8.9
2020-Jan-21 03:12 312 4 gusting 7 9.4
2020-Jan-21 03:02 088 4 gusting 6 8.9
2020-Jan-21 02:52 356 2 gusting 4 9.4
2020-Jan-21 02:42 360 0 gusting 5 8.9
2020-Jan-21 02:32 360 1 gusting 5 8.9
2020-Jan-21 02:22 299 0 gusting 5 8.9
2020-Jan-21 02:12 250 3 gusting 5 8.3
2020-Jan-21 02:02 220 1 gusting 5 8.3
2020-Jan-21 01:52 246 3 gusting 5 8.3
2020-Jan-21 01:42 126 0 gusting 3 8.3
2020-Jan-21 01:32 193 0 gusting 4 8.3
2020-Jan-21 01:22 239 0 gusting 4 8.9
2020-Jan-21 01:12 219 0 gusting 5 8.3
2020-Jan-21 01:02 237 0 gusting 5 8.9
2020-Jan-21 00:52 236 2 gusting 4 8.3
2020-Jan-21 00:42 240 0 gusting 3 8.3
2020-Jan-21 00:32 128 0 gusting 5 8.3
2020-Jan-21 00:22 237 1 gusting 4 8.3
2020-Jan-21 00:12 240 3 gusting 6 8.3
2020-Jan-21 00:02 257 1 gusting 4 8.3
2020-Jan-20 23:52 227 0 gusting 1 8.3
2020-Jan-20 23:42 229 0 gusting 4 8.3
2020-Jan-20 23:32 217 1 gusting 2 8.3
2020-Jan-20 23:22 202 0 gusting 3 8.3
2020-Jan-20 23:12 239 1 gusting 3 8.3
2020-Jan-20 23:02 210 8.9
2020-Jan-20 22:52 192 0 gusting 4 8.3
2020-Jan-20 22:42 205 0 gusting 4 8.3
2020-Jan-20 22:32 199 0 gusting 2 8.3
2020-Jan-20 22:22 229 0 gusting 4 8.3
2020-Jan-20 22:12 243 0 gusting 5 8.3
2020-Jan-20 22:02 237 0 gusting 4 8.3
2020-Jan-20 21:52 236 1 gusting 4 8.3
2020-Jan-20 21:42 243 8.3
2020-Jan-20 21:32 226 1 gusting 2 8.3
2020-Jan-20 21:22 229 0 gusting 2 8.3
2020-Jan-20 21:12 233 0 gusting 4 8.3
2020-Jan-20 21:02 227 1 gusting 3 8.3
2020-Jan-20 20:52 230 0 gusting 2 8.3
2020-Jan-20 17:02 254 0 gusting 1 8.3
2020-Jan-20 16:52 254 0 gusting 3 8.3
2020-Jan-20 16:42 248 1 gusting 5 8.3
2020-Jan-20 16:32 267 3 gusting 6 8.3
2020-Jan-20 16:22 137 1 gusting 9 8.3
2020-Jan-20 16:12 319 8.3
2020-Jan-20 16:02 295 0 gusting 4 8.3
2020-Jan-20 15:52 289 0 gusting 5 8.3
2020-Jan-20 15:42 246 0 gusting 4 8.9
2020-Jan-20 15:32 233 3 gusting 5 8.3
2020-Jan-20 15:22 247 1 gusting 3 8.3
2020-Jan-20 15:12 217 0 gusting 5 8.9
2020-Jan-20 15:02 256 1 gusting 4 8.3
2020-Jan-20 14:52 241 1 gusting 5 8.3
2020-Jan-20 14:42 243 2 gusting 5 7.8
2020-Jan-20 14:32 213 2 gusting 5 7.8
2020-Jan-20 14:22 263 1 gusting 5 7.8
2020-Jan-20 14:12 253 2 gusting 6 7.8
2020-Jan-20 14:02 274 2 gusting 5 7.8
2020-Jan-20 13:52 143 7.8
2020-Jan-20 13:42 230 3 gusting 6 7.8
2020-Jan-20 13:32 222 1 gusting 5 7.8
2020-Jan-20 13:22 251 1 gusting 5 7.8
2020-Jan-20 13:12 274 1 gusting 6 7.8
2020-Jan-20 13:02 239 3 gusting 6 7.8
2020-Jan-20 12:52 241 1 gusting 5 7.8
2020-Jan-20 12:42 233 0 gusting 6 7.8
2020-Jan-20 12:32 236 2 gusting 6 7.8
2020-Jan-20 12:22 263 2 gusting 6 7.8
2020-Jan-20 12:12 240 0 gusting 4 7.8
2020-Jan-20 12:02 291 1 gusting 5 7.8
2020-Jan-20 11:52 264 1 gusting 5 7.8
2020-Jan-20 11:42 267 1 gusting 5 7.8
2020-Jan-20 11:32 250 2 gusting 6 7.8
2020-Jan-20 11:22 241 1 gusting 6 7.8
2020-Jan-20 11:12 233 2 gusting 5 7.8
2020-Jan-20 11:02 299 4 gusting 6 7.8
2020-Jan-20 10:52 236 7.8
2020-Jan-20 10:42 226 7.8
2020-Jan-20 10:32 226 0 gusting 2 7.8
2020-Jan-20 10:22 226 0 gusting 2 7.8
2020-Jan-20 10:12 226 0 gusting 1 7.8
2020-Jan-20 10:02 248 7.2
2020-Jan-20 09:52 311 0 gusting 6 7.2
2020-Jan-20 09:42 322 1 gusting 6 7.2
2020-Jan-20 09:32 337 1 gusting 6 6.7
2020-Jan-20 09:22 287 3 gusting 5 6.7
2020-Jan-20 09:12 274 5 gusting 6 7.2
2020-Jan-20 09:02 274 2 gusting 5 7.2
2020-Jan-20 08:52 284 1 gusting 3 7.2
2020-Jan-20 08:42 295 1 gusting 5 7.2
2020-Jan-20 08:32 031 1 gusting 8 7.2
2020-Jan-20 08:22 056 4 gusting 13 7.2
2020-Jan-20 08:12 058 5 gusting 12 7.2
2020-Jan-20 08:02 001 3 gusting 9 7.8
2020-Jan-20 07:52 047 5 gusting 18 8.3
2020-Jan-20 07:42 051 5 gusting 12 7.8
2020-Jan-20 07:32 076 6 gusting 11 7.8
2020-Jan-20 07:22 004 6 gusting 21 8.3
2020-Jan-20 07:12 075 8 gusting 10 7.8
2020-Jan-20 07:02 357 4 gusting 10 7.8
2020-Jan-20 06:52 078 2 gusting 9 7.2
2020-Jan-20 06:42 316 6 gusting 10 7.2
2020-Jan-20 06:32 003 6 gusting 12 7.2
2020-Jan-20 06:22 360 5 gusting 12 7.2
2020-Jan-20 06:12 299 3 gusting 10 7.2
2020-Jan-20 06:02 312 4 gusting 6 7.2
2020-Jan-20 05:52 360 4 gusting 9 7.8
2020-Jan-20 05:43 051 4 gusting 10 7.8
2020-Jan-20 05:32 309 2 gusting 8 7.8
2020-Jan-20 05:22 014 4 gusting 9 7.8
2020-Jan-20 05:12 008 5 gusting 9 8.3
2020-Jan-20 05:02 354 5 gusting 10 8.3
2020-Jan-20 04:52 342 6 gusting 14 7.8
2020-Jan-20 04:42 337 5 gusting 11 7.8
2020-Jan-20 04:32 008 8 gusting 14 8.3
2020-Jan-20 04:22 023 6 gusting 10 8.3
2020-Jan-20 04:12 010 6 gusting 14 8.3
2020-Jan-20 04:02 357 5 gusting 16 8.3
2020-Jan-20 03:52 010 6 gusting 12 8.3
2020-Jan-20 03:42 325 6 gusting 12 8.3
2020-Jan-20 03:32 360 3 gusting 11 8.3
2020-Jan-20 03:22 011 4 gusting 9 8.3
2020-Jan-20 03:12 360 4 gusting 10 8.3
2020-Jan-20 03:02 354 6 gusting 12 8.3
2020-Jan-20 02:52 007 5 gusting 12 8.3
2020-Jan-20 02:42 018 7 gusting 10 8.3
2020-Jan-20 02:32 198 6 gusting 12 8.3
2020-Jan-20 02:22 357 5 gusting 9 8.3
2020-Jan-20 02:12 360 5 gusting 12 8.3
2020-Jan-20 02:02 349 6 gusting 9 8.9
2020-Jan-20 01:52 336 6 gusting 11 8.9
2020-Jan-20 01:42 360 6 gusting 10 8.9
2020-Jan-20 01:32 007 6 gusting 9 8.9
2020-Jan-20 01:22 357 5 gusting 11 8.9
2020-Jan-20 01:12 350 6 gusting 11 8.3
2020-Jan-20 01:02 001 6 gusting 11 8.3
2020-Jan-20 00:52 357 4 gusting 9 8.3
2020-Jan-20 00:42 330 4 gusting 11 8.3
2020-Jan-20 00:32 350 6 gusting 11 8.9
2020-Jan-20 00:22 333 5 gusting 11 8.9
2020-Jan-20 00:12 330 4 gusting 10 8.9
2020-Jan-20 00:02 360 6 gusting 10 8.9
2020-Jan-19 23:52 004 2 gusting 6 8.9
2020-Jan-19 23:42 020 4 gusting 11 8.9
2020-Jan-19 23:32 346 2 gusting 10 8.9
2020-Jan-19 23:22 292 4 gusting 11 9.4
2020-Jan-19 23:12 003 6 gusting 10 9.4
2020-Jan-19 23:02 041 5 gusting 14 9.4